Time,TemperatureF,DewpointF,PressureIn,WindDirection,WindDirectionDegrees,WindSpeedMPH,WindSpeedGustMPH,Humidity,HourlyPrecipIn,Conditions,Clouds,dailyrainin,SoftwareType,DateUTC
2013-07-17 00:04:00,75.6,65.5,29.88,SW,236,0.0,0.0,71,0.00,,,0.00,VWS V14.01,2013-07-17 07:04:00,
2013-07-17 00:09:00,75.6,65.9,29.88,SW,236,0.0,0.0,72,0.00,,,0.00,VWS V14.01,2013-07-17 07:09:00,
2013-07-17 00:14:00,75.5,66.2,29.88,SW,236,0.0,0.0,73,0.00,,,0.00,VWS V14.01,2013-07-17 07:14:00,
2013-07-17 00:19:00,75.4,66.2,29.88,SW,236,0.0,0.0,73,0.00,,,0.00,VWS V14.01,2013-07-17 07:19:00,
2013-07-17 00:24:00,75.4,66.5,29.87,SW,236,0.0,0.0,74,0.00,,,0.00,VWS V14.01,2013-07-17 07:24:00,
2013-07-17 00:29:00,75.3,66.8,29.87,SW,236,0.0,0.0,75,0.00,,,0.00,VWS V14.01,2013-07-17 07:29:00,
2013-07-17 00:34:00,75.0,66.9,29.87,SW,236,0.0,1.0,76,0.00,,,0.00,VWS V14.01,2013-07-17 07:34:00,
2013-07-17 00:39:00,74.8,67.1,29.87,SW,236,0.0,0.0,77,0.00,,,0.00,VWS V14.01,2013-07-17 07:39:00,
2013-07-17 00:44:00,74.9,67.2,29.87,SW,236,0.0,0.0,77,0.00,,,0.00,VWS V14.01,2013-07-17 07:44:00,
2013-07-17 00:49:00,74.9,66.8,29.87,SW,236,0.0,1.0,76,0.00,,,0.00,VWS V14.01,2013-07-17 07:49:00,
2013-07-17 00:54:00,75.0,66.9,29.87,SW,236,0.0,1.0,76,0.00,,,0.00,VWS V14.01,2013-07-17 07:54:00,
2013-07-17 00:59:00,75.2,66.7,29.87,West,263,0.0,2.0,75,0.00,,,0.00,VWS V14.01,2013-07-17 07:59:00,
2013-07-17 01:04:00,75.3,66.4,29.87,West,265,1.0,3.0,74,0.00,,,0.00,VWS V14.01,2013-07-17 08:04:00,
2013-07-17 01:09:00,75.4,66.5,29.86,West,265,0.0,1.0,74,0.00,,,0.00,VWS V14.01,2013-07-17 08:09:00,
2013-07-17 01:14:00,75.4,66.2,29.86,NW,325,2.0,4.0,73,0.00,,,0.00,VWS V14.01,2013-07-17 08:14:00,
2013-07-17 01:19:00,75.3,66.8,29.86,North,349,1.0,3.0,75,0.00,,,0.00,VWS V14.01,2013-07-17 08:19:00,
2013-07-17 01:24:00,75.0,66.9,29.86,North,349,0.0,1.0,76,0.00,,,0.00,VWS V14.01,2013-07-17 08:24:00,
2013-07-17 01:29:00,74.8,66.7,29.86,North,349,0.0,0.0,76,0.00,,,0.00,VWS V14.01,2013-07-17 08:29:00,
2013-07-17 01:34:00,74.7,67.0,29.86,North,349,0.0,0.0,77,0.00,,,0.00,VWS V14.01,2013-07-17 08:34:00,
2013-07-17 01:39:00,74.6,67.3,29.86,North,349,0.0,0.0,78,0.00,,,0.00,VWS V14.01,2013-07-17 08:39:00,
2013-07-17 01:44:00,74.6,67.3,29.86,North,349,0.0,0.0,78,0.00,,,0.00,VWS V14.01,2013-07-17 08:44:00,
2013-07-17 01:49:00,74.5,67.2,29.86,North,349,0.0,1.0,78,0.00,,,0.00,VWS V14.01,2013-07-17 08:49:00,
2013-07-17 01:54:00,74.4,67.5,29.86,North,349,0.0,1.0,79,0.00,,,0.00,VWS V14.01,2013-07-17 08:54:00,
2013-07-17 01:59:00,74.2,67.3,29.86,North,349,0.0,3.0,79,0.00,,,0.00,VWS V14.01,2013-07-17 08:59:00,
2013-07-17 02:04:00,74.1,67.2,29.85,North,350,1.0,2.0,79,0.00,,,0.00,VWS V14.01,2013-07-17 09:04:00,
2013-07-17 02:09:00,74.1,67.2,29.85,North,350,0.0,2.0,79,0.00,,,0.00,VWS V14.01,2013-07-17 09:09:00,
2013-07-17 02:14:00,74.2,67.3,29.85,North,350,0.0,1.0,79,0.00,,,0.00,VWS V14.01,2013-07-17 09:14:00,
2013-07-17 02:19:00,74.1,67.5,29.85,North,350,1.0,1.0,80,0.00,,,0.00,VWS V14.01,2013-07-17 09:19:00,
2013-07-17 02:24:00,74.0,67.4,29.84,NNW,342,0.0,3.0,80,0.00,,,0.00,VWS V14.01,2013-07-17 09:24:00,
2013-07-17 02:29:00,74.1,67.5,29.84,NNW,339,0.0,2.0,80,0.00,,,0.00,VWS V14.01,2013-07-17 09:29:00,
2013-07-17 02:34:00,74.1,67.2,29.84,NNW,333,0.0,2.0,79,0.00,,,0.00,VWS V14.01,2013-07-17 09:34:00,
2013-07-17 02:39:00,74.2,66.5,29.84,NNW,327,2.0,3.0,77,0.00,,,0.00,VWS V14.01,2013-07-17 09:39:00,
2013-07-17 02:44:00,74.3,66.6,29.84,NNW,331,2.0,3.0,77,0.00,,,0.00,VWS V14.01,2013-07-17 09:44:00,
2013-07-17 02:49:00,74.4,66.3,29.84,NNW,327,4.0,6.0,76,0.00,,,0.00,VWS V14.01,2013-07-17 09:49:00,
2013-07-17 02:54:00,74.5,66.4,29.84,NW,313,3.0,6.0,76,0.00,,,0.00,VWS V14.01,2013-07-17 09:54:00,
2013-07-17 02:59:00,74.5,66.4,29.84,NW,325,4.0,5.0,76,0.00,,,0.00,VWS V14.01,2013-07-17 09:59:00,
2013-07-17 03:04:00,74.5,66.8,29.84,NNW,331,4.0,5.0,77,0.00,,,0.00,VWS V14.01,2013-07-17 10:04:00,
2013-07-17 03:09:00,74.4,66.7,29.84,NW,316,2.0,5.0,77,0.00,,,0.00,VWS V14.01,2013-07-17 10:09:00,
2013-07-17 03:14:00,74.4,66.7,29.84,NNW,342,2.0,4.0,77,0.00,,,0.00,VWS V14.01,2013-07-17 10:14:00,
2013-07-17 03:19:00,74.3,66.6,29.84,NNW,347,2.0,3.0,77,0.00,,,0.00,VWS V14.01,2013-07-17 10:19:00,
2013-07-17 03:24:00,74.3,66.6,29.84,NNW,327,3.0,4.0,77,0.00,,,0.00,VWS V14.01,2013-07-17 10:24:00,
2013-07-17 03:29:00,74.2,66.9,29.84,NNW,342,1.0,4.0,78,0.00,,,0.00,VWS V14.01,2013-07-17 10:29:00,
2013-07-17 03:34:00,74.1,66.8,29.84,NNW,347,3.0,6.0,78,0.00,,,0.00,VWS V14.01,2013-07-17 10:34:00,
2013-07-17 03:39:00,74.0,67.1,29.84,NNW,327,4.0,4.0,79,0.00,,,0.00,VWS V14.01,2013-07-17 10:39:00,
2013-07-17 03:44:00,74.0,67.1,29.84,NW,325,2.0,5.0,79,0.00,,,0.00,VWS V14.01,2013-07-17 10:44:00,
2013-07-17 03:49:00,74.0,66.7,29.84,NNW,331,0.0,3.0,78,0.00,,,0.00,VWS V14.01,2013-07-17 10:49:00,
2013-07-17 03:54:00,74.0,66.3,29.84,NW,321,2.0,4.0,77,0.00,,,0.00,VWS V14.01,2013-07-17 10:54:00,
2013-07-17 03:59:00,74.0,66.3,29.84,NW,321,0.0,3.0,77,0.00,,,0.00,VWS V14.01,2013-07-17 10:59:00,
2013-07-17 04:04:00,74.1,66.4,29.84,NW,321,0.0,1.0,77,0.00,,,0.00,VWS V14.01,2013-07-17 11:04:00,
2013-07-17 04:09:00,74.1,66.4,29.84,NW,321,0.0,0.0,77,0.00,,,0.00,VWS V14.01,2013-07-17 11:09:00,
2013-07-17 04:14:00,73.9,66.2,29.84,NW,321,0.0,0.0,77,0.00,,,0.00,VWS V14.01,2013-07-17 11:14:00,
2013-07-17 04:19:00,73.9,67.0,29.84,NW,321,0.0,1.0,79,0.00,,,0.00,VWS V14.01,2013-07-17 11:19:00,
2013-07-17 04:24:00,73.8,67.2,29.85,NW,321,0.0,0.0,80,0.00,,,0.00,VWS V14.01,2013-07-17 11:24:00,
2013-07-17 04:29:00,73.8,66.9,29.85,NW,321,0.0,0.0,79,0.00,,,0.00,VWS V14.01,2013-07-17 11:29:00,
2013-07-17 04:34:00,73.7,67.2,29.85,SW,217,2.0,2.0,80,0.00,,,0.00,VWS V14.01,2013-07-17 11:34:00,
2013-07-17 04:39:00,73.6,67.1,29.85,SW,217,1.0,3.0,80,0.00,,,0.00,VWS V14.01,2013-07-17 11:39:00,
2013-07-17 04:44:00,73.6,67.1,29.85,SW,217,0.0,0.0,80,0.00,,,0.00,VWS V14.01,2013-07-17 11:44:00,
2013-07-17 04:49:00,73.6,67.1,29.85,SW,217,0.0,1.0,80,0.00,,,0.00,VWS V14.01,2013-07-17 11:49:00,
2013-07-17 04:54:00,73.5,67.0,29.85,SW,223,0.0,2.0,80,0.00,,,0.00,VWS V14.01,2013-07-17 11:54:00,
2013-07-17 04:59:00,73.4,66.9,29.85,SW,223,0.0,0.0,80,0.00,,,0.00,VWS V14.01,2013-07-17 11:59:00,
2013-07-17 05:04:00,73.4,66.9,29.85,SW,224,0.0,2.0,80,0.00,,,0.00,VWS V14.01,2013-07-17 12:04:00,
2013-07-17 05:09:00,73.5,67.0,29.85,SW,224,0.0,1.0,80,0.00,,,0.00,VWS V14.01,2013-07-17 12:09:00,
2013-07-17 05:14:00,73.5,66.6,29.85,SW,224,0.0,0.0,79,0.00,,,0.00,VWS V14.01,2013-07-17 12:14:00,
2013-07-17 05:19:00,73.5,67.3,29.86,SW,224,0.0,0.0,81,0.00,,,0.00,VWS V14.01,2013-07-17 12:19:00,
2013-07-17 05:24:00,73.3,67.1,29.86,SW,224,1.0,1.0,81,0.00,,,0.00,VWS V14.01,2013-07-17 12:24:00,
2013-07-17 05:29:00,73.1,67.3,29.86,SW,224,0.0,1.0,82,0.00,,,0.00,VWS V14.01,2013-07-17 12:29:00,
2013-07-17 05:34:00,73.0,67.2,29.87,SW,224,0.0,0.0,82,0.00,,,0.00,VWS V14.01,2013-07-17 12:34:00,
2013-07-17 05:39:00,73.0,67.2,29.87,SW,224,0.0,1.0,82,0.00,,,0.00,VWS V14.01,2013-07-17 12:39:00,
2013-07-17 05:44:00,73.0,67.5,29.87,SW,224,0.0,0.0,83,0.00,,,0.00,VWS V14.01,2013-07-17 12:44:00,
2013-07-17 05:49:00,72.8,67.3,29.87,SW,224,2.0,2.0,83,0.00,,,0.00,VWS V14.01,2013-07-17 12:49:00,
2013-07-17 05:54:00,72.7,67.2,29.87,NW,320,0.0,3.0,83,0.00,,,0.00,VWS V14.01,2013-07-17 12:54:00,
2013-07-17 06:00:00,72.8,67.0,29.87,NW,321,0.0,1.0,82,0.00,,,0.00,VWS V14.01,2013-07-17 13:00:00,
2013-07-17 06:05:00,72.9,66.7,29.87,NW,320,0.0,2.0,81,0.00,,,0.00,VWS V14.01,2013-07-17 13:05:00,
2013-07-17 06:10:00,73.0,66.8,29.88,NW,319,3.0,3.0,81,0.00,,,0.00,VWS V14.01,2013-07-17 13:10:00,
2013-07-17 06:15:00,73.2,67.0,29.88,North,355,4.0,4.0,81,0.00,,,0.00,VWS V14.01,2013-07-17 13:15:00,
2013-07-17 06:20:00,73.4,66.9,29.88,NNW,328,4.0,5.0,80,0.00,,,0.00,VWS V14.01,2013-07-17 13:20:00,
2013-07-17 06:25:00,73.8,67.2,29.88,NNW,346,0.0,4.0,80,0.00,,,0.00,VWS V14.01,2013-07-17 13:25:00,
2013-07-17 06:30:00,74.4,67.5,29.88,NNW,336,4.0,4.0,79,0.00,,,0.00,VWS V14.01,2013-07-17 13:30:00,
2013-07-17 06:35:00,74.8,67.1,29.89,NNW,346,2.0,5.0,77,0.00,,,0.00,VWS V14.01,2013-07-17 13:35:00,
2013-07-17 06:40:00,75.3,67.2,29.88,NNW,329,3.0,4.0,76,0.00,,,0.00,VWS V14.01,2013-07-17 13:40:00,
2013-07-17 06:45:00,75.6,67.1,29.88,NNW,334,5.0,5.0,75,0.00,,,0.00,VWS V14.01,2013-07-17 13:45:00,
2013-07-17 06:50:00,76.1,67.2,29.89,NNW,340,4.0,4.0,74,0.00,,,0.00,VWS V14.01,2013-07-17 13:50:00,
2013-07-17 06:55:00,76.6,67.3,29.89,NNW,346,1.0,4.0,73,0.00,,,0.00,VWS V14.01,2013-07-17 13:55:00,
2013-07-17 07:00:00,76.9,66.8,29.89,North,350,2.0,4.0,71,0.00,,,0.00,VWS V14.01,2013-07-17 14:00:00,
2013-07-17 07:05:00,77.3,66.3,29.89,NNW,332,1.0,5.0,69,0.00,,,0.00,VWS V14.01,2013-07-17 14:05:00,
2013-07-17 07:10:00,77.9,66.5,29.89,NNW,332,0.0,2.0,68,0.00,,,0.00,VWS V14.01,2013-07-17 14:10:00,
2013-07-17 07:15:00,78.5,66.2,29.89,NNW,333,0.0,2.0,66,0.00,,,0.00,VWS V14.01,2013-07-17 14:15:00,
2013-07-17 07:20:00,79.0,66.2,29.89,NNW,333,0.0,0.0,65,0.00,,,0.00,VWS V14.01,2013-07-17 14:20:00,
2013-07-17 07:25:00,79.6,66.4,29.89,NNW,333,0.0,1.0,64,0.00,,,0.00,VWS V14.01,2013-07-17 14:25:00,
2013-07-17 07:30:00,79.8,65.6,29.89,NNW,333,0.0,0.0,62,0.00,,,0.00,VWS V14.01,2013-07-17 14:30:00,
2013-07-17 07:35:00,79.8,66.1,29.89,NNW,333,0.0,1.0,63,0.00,,,0.00,VWS V14.01,2013-07-17 14:35:00,
2013-07-17 07:40:00,79.5,66.7,29.89,SSW,197,0.0,3.0,65,0.00,,,0.00,VWS V14.01,2013-07-17 14:40:00,
2013-07-17 07:45:00,78.9,67.9,29.90,SSW,213,0.0,5.0,69,0.00,,,0.00,VWS V14.01,2013-07-17 14:45:00,
2013-07-17 07:50:00,78.5,67.9,29.90,SSW,213,0.0,1.0,70,0.00,,,0.00,VWS V14.01,2013-07-17 14:50:00,
2013-07-17 07:55:00,78.5,67.5,29.90,SSW,213,0.0,0.0,69,0.00,,,0.00,VWS V14.01,2013-07-17 14:55:00,
2013-07-17 08:00:00,78.3,67.7,29.90,SSW,213,0.0,0.0,70,0.00,,,0.00,VWS V14.01,2013-07-17 15:00:00,
2013-07-17 08:05:00,78.3,68.1,29.90,SSW,213,0.0,0.0,71,0.00,,,0.00,VWS V14.01,2013-07-17 15:05:00,
2013-07-17 08:10:00,78.4,67.8,29.90,SSW,213,0.0,1.0,70,0.00,,,0.00,VWS V14.01,2013-07-17 15:10:00,
2013-07-17 08:15:00,78.1,67.5,29.90,SSW,213,0.0,2.0,70,0.00,,,0.00,VWS V14.01,2013-07-17 15:15:00,
2013-07-17 08:20:00,78.1,67.5,29.89,SSW,213,0.0,0.0,70,0.00,,,0.00,VWS V14.01,2013-07-17 15:20:00,
2013-07-17 08:25:00,78.8,67.8,29.89,SSW,213,0.0,0.0,69,0.00,,,0.00,VWS V14.01,2013-07-17 15:25:00,
2013-07-17 08:30:00,79.3,67.4,29.89,SSW,213,0.0,1.0,67,0.00,,,0.00,VWS V14.01,2013-07-17 15:30:00,
2013-07-17 08:35:00,80.3,67.0,29.89,SSW,213,0.0,2.0,64,0.00,,,0.00,VWS V14.01,2013-07-17 15:35:00,
2013-07-17 08:40:00,80.8,66.6,29.89,SW,223,1.0,4.0,62,0.00,,,0.00,VWS V14.01,2013-07-17 15:40:00,
2013-07-17 08:45:00,81.0,66.3,29.89,SW,223,0.0,2.0,61,0.00,,,0.00,VWS V14.01,2013-07-17 15:45:00,
2013-07-17 08:50:00,81.8,66.6,29.89,SW,226,1.0,3.0,60,0.00,,,0.00,VWS V14.01,2013-07-17 15:50:00,
2013-07-17 08:55:00,82.9,66.6,29.89,SW,224,0.0,4.0,58,0.00,,,0.00,VWS V14.01,2013-07-17 15:55:00,
2013-07-17 09:00:00,83.6,66.8,29.89,West,270,0.0,5.0,57,0.00,,,0.00,VWS V14.01,2013-07-17 16:00:00,
2013-07-17 09:05:00,84.1,67.2,29.89,SW,220,2.0,4.0,57,0.00,,,0.00,VWS V14.01,2013-07-17 16:05:00,
2013-07-17 09:10:00,83.8,65.4,29.89,WNW,290,4.0,6.0,54,0.00,,,0.00,VWS V14.01,2013-07-17 16:10:00,
2013-07-17 09:15:00,84.1,65.7,29.89,WNW,288,0.0,5.0,54,0.00,,,0.00,VWS V14.01,2013-07-17 16:15:00,
2013-07-17 09:20:00,84.7,64.0,29.89,WSW,248,0.0,4.0,50,0.00,,,0.00,VWS V14.01,2013-07-17 16:20:00,
2013-07-17 09:25:00,86.2,65.4,29.89,West,260,1.0,3.0,50,0.00,,,0.00,VWS V14.01,2013-07-17 16:25:00,
2013-07-17 09:30:00,85.3,63.4,29.89,WNW,288,0.0,5.0,48,0.00,,,0.00,VWS V14.01,2013-07-17 16:30:00,
2013-07-17 09:35:00,86.4,62.6,29.88,WNW,290,2.0,6.0,45,0.00,,,0.00,VWS V14.01,2013-07-17 16:35:00,
2013-07-17 09:40:00,87.0,63.7,29.89,WSW,258,1.0,5.0,46,0.00,,,0.00,VWS V14.01,2013-07-17 16:40:00,
2013-07-17 09:45:00,88.6,62.6,29.89,SW,225,0.0,5.0,42,0.00,,,0.00,VWS V14.01,2013-07-17 16:45:00,
2013-07-17 09:50:00,87.4,61.5,29.89,WNW,295,2.0,7.0,42,0.00,,,0.00,VWS V14.01,2013-07-17 16:50:00,
2013-07-17 09:55:00,88.0,60.0,29.89,SW,232,0.0,4.0,39,0.00,,,0.00,VWS V14.01,2013-07-17 16:55:00,
2013-07-17 10:00:00,88.8,59.2,29.89,WNW,293,3.0,5.0,37,0.00,,,0.00,VWS V14.01,2013-07-17 17:00:00,
2013-07-17 10:06:00,88.7,56.8,29.89,WNW,302,0.0,5.0,34,0.00,,,0.00,VWS V14.01,2013-07-17 17:06:00,
2013-07-17 10:11:00,90.4,59.0,29.88,WNW,292,4.0,7.0,35,0.00,,,0.00,VWS V14.01,2013-07-17 17:11:00,
2013-07-17 10:16:00,90.8,59.4,29.89,SW,223,0.0,4.0,35,0.00,,,0.00,VWS V14.01,2013-07-17 17:16:00,
2013-07-17 10:21:00,91.1,58.0,29.88,West,267,6.0,11.0,33,0.00,,,0.00,VWS V14.01,2013-07-17 17:21:00,
2013-07-17 10:26:00,90.8,57.8,29.88,WNW,284,2.0,6.0,33,0.00,,,0.00,VWS V14.01,2013-07-17 17:26:00,
2013-07-17 10:31:00,89.0,57.0,29.88,WNW,285,0.0,2.0,34,0.00,,,0.00,VWS V14.01,2013-07-17 17:31:00,
2013-07-17 10:36:00,90.7,58.5,29.88,West,281,0.0,3.0,34,0.00,,,0.00,VWS V14.01,2013-07-17 17:36:00,
2013-07-17 10:41:00,91.0,57.9,29.89,West,269,0.0,4.0,33,0.00,,,0.00,VWS V14.01,2013-07-17 17:41:00,
2013-07-17 10:46:00,92.0,58.8,29.88,SW,217,0.0,4.0,33,0.00,,,0.00,VWS V14.01,2013-07-17 17:46:00,
2013-07-17 10:51:00,92.2,57.2,29.88,WNW,292,2.0,5.0,31,0.00,,,0.00,VWS V14.01,2013-07-17 17:51:00,
2013-07-17 10:56:00,91.1,57.2,29.88,NW,308,0.0,6.0,32,0.00,,,0.00,VWS V14.01,2013-07-17 17:56:00,
2013-07-17 11:01:00,92.9,57.8,29.88,SSW,201,0.0,7.0,31,0.00,,,0.00,VWS V14.01,2013-07-17 18:01:00,
2013-07-17 11:06:00,91.3,55.5,29.88,SSW,201,1.0,3.0,30,0.00,,,0.00,VWS V14.01,2013-07-17 18:06:00,
2013-07-17 11:11:00,92.1,58.9,29.88,SW,223,4.0,4.0,33,0.00,,,0.00,VWS V14.01,2013-07-17 18:11:00,
2013-07-17 11:16:00,92.6,56.7,29.88,NNW,327,6.0,6.0,30,0.00,,,0.00,VWS V14.01,2013-07-17 18:16:00,
2013-07-17 11:21:00,91.5,55.7,29.87,NW,310,0.0,6.0,30,0.00,,,0.00,VWS V14.01,2013-07-17 18:21:00,
2013-07-17 11:26:00,91.5,57.5,29.87,NNW,331,4.0,4.0,32,0.00,,,0.00,VWS V14.01,2013-07-17 18:26:00,
2013-07-17 11:31:00,91.7,56.8,29.87,NNE,17,1.0,5.0,31,0.00,,,0.00,VWS V14.01,2013-07-17 18:31:00,
2013-07-17 11:36:00,90.7,55.9,29.88,NW,325,4.0,5.0,31,0.00,,,0.00,VWS V14.01,2013-07-17 18:36:00,
2013-07-17 11:41:00,90.7,56.8,29.87,WNW,290,1.0,5.0,32,0.00,,,0.00,VWS V14.01,2013-07-17 18:41:00,
2013-07-17 11:46:00,92.6,56.7,29.87,WNW,290,0.0,2.0,30,0.00,,,0.00,VWS V14.01,2013-07-17 18:46:00,
2013-07-17 11:51:00,92.4,57.4,29.87,North,355,2.0,5.0,31,0.00,,,0.00,VWS V14.01,2013-07-17 18:51:00,
2013-07-17 11:56:00,92.7,57.7,29.87,NW,323,1.0,5.0,31,0.00,,,0.00,VWS V14.01,2013-07-17 18:56:00,
2013-07-17 12:01:00,92.5,57.5,29.87,WNW,289,0.0,4.0,31,0.00,,,0.00,VWS V14.01,2013-07-17 19:01:00,
2013-07-17 12:06:00,93.3,58.2,29.86,West,266,1.0,4.0,31,0.00,,,0.00,VWS V14.01,2013-07-17 19:06:00,
2013-07-17 12:11:00,94.4,57.3,29.86,WSW,250,0.0,3.0,29,0.00,,,0.00,VWS V14.01,2013-07-17 19:11:00,
2013-07-17 12:16:00,93.6,57.5,29.86,ESE,123,1.0,4.0,30,0.00,,,0.00,VWS V14.01,2013-07-17 19:16:00,
2013-07-17 12:26:00,94.6,57.5,29.86,South,188,0.0,2.0,29,0.00,,,0.00,VWS V14.01,2013-07-17 19:26:00,
2013-07-17 12:31:00,93.7,56.7,29.85,East,90,1.0,3.0,29,0.00,,,0.00,VWS V14.01,2013-07-17 19:31:00,
2013-07-17 12:36:00,93.9,56.8,29.85,ENE,71,0.0,7.0,29,0.00,,,0.00,VWS V14.01,2013-07-17 19:36:00,
2013-07-17 12:41:00,92.6,56.7,29.85,SE,132,0.0,7.0,30,0.00,,,0.00,VWS V14.01,2013-07-17 19:41:00,
2013-07-17 12:46:00,93.1,56.2,29.85,ENE,67,0.0,5.0,29,0.00,,,0.00,VWS V14.01,2013-07-17 19:46:00,
2013-07-17 12:51:00,94.8,57.6,29.85,ESE,106,2.0,4.0,29,0.00,,,0.00,VWS V14.01,2013-07-17 19:51:00,
2013-07-17 12:56:00,96.2,56.8,29.85,SSW,196,0.0,4.0,27,0.00,,,0.00,VWS V14.01,2013-07-17 19:56:00,
2013-07-17 13:01:00,96.4,57.0,29.84,SSW,205,0.0,5.0,27,0.00,,,0.00,VWS V14.01,2013-07-17 20:01:00,
2013-07-17 13:06:00,95.0,56.8,29.85,South,174,0.0,5.0,28,0.00,,,0.00,VWS V14.01,2013-07-17 20:06:00,
2013-07-17 13:11:00,95.1,56.9,29.84,ESE,113,2.0,7.0,28,0.00,,,0.00,VWS V14.01,2013-07-17 20:11:00,
2013-07-17 13:16:00,94.9,56.7,29.84,SSE,157,1.0,7.0,28,0.00,,,0.00,VWS V14.01,2013-07-17 20:16:00,
2013-07-17 13:21:00,92.8,55.9,29.84,SE,138,0.0,7.0,29,0.00,,,0.00,VWS V14.01,2013-07-17 20:21:00,
2013-07-17 13:26:00,92.0,57.1,29.84,SE,134,0.0,5.0,31,0.00,,,0.00,VWS V14.01,2013-07-17 20:26:00,
2013-07-17 13:31:00,93.7,56.7,29.84,SE,135,0.0,2.0,29,0.00,,,0.00,VWS V14.01,2013-07-17 20:31:00,
2013-07-17 13:36:00,94.7,57.5,29.83,NW,311,5.0,5.0,29,0.00,,,0.00,VWS V14.01,2013-07-17 20:36:00,
2013-07-17 13:41:00,96.1,57.8,29.83,WSW,249,0.0,6.0,28,0.00,,,0.00,VWS V14.01,2013-07-17 20:41:00,
2013-07-17 13:46:00,94.8,56.7,29.83,North,355,0.0,5.0,28,0.00,,,0.00,VWS V14.01,2013-07-17 20:46:00,
2013-07-17 13:51:00,96.8,58.3,29.83,WNW,300,1.0,8.0,28,0.00,,,0.00,VWS V14.01,2013-07-17 20:51:00,
2013-07-17 13:56:00,96.3,56.9,29.83,West,263,3.0,6.0,27,0.00,,,0.00,VWS V14.01,2013-07-17 20:56:00,
2013-07-17 14:01:00,97.0,56.5,29.83,WSW,249,0.0,5.0,26,0.00,,,0.00,VWS V14.01,2013-07-17 21:01:00,
2013-07-17 14:06:00,96.0,57.7,29.83,SSW,199,0.0,6.0,28,0.00,,,0.00,VWS V14.01,2013-07-17 21:06:00,
2013-07-17 14:11:00,95.4,58.1,29.82,ENE,78,1.0,3.0,29,0.00,,,0.00,VWS V14.01,2013-07-17 21:11:00,
2013-07-17 14:16:00,93.5,55.5,29.82,SSE,166,1.0,5.0,28,0.00,,,0.00,VWS V14.01,2013-07-17 21:16:00,
2013-07-17 14:21:00,95.1,56.9,29.82,ENE,69,4.0,4.0,28,0.00,,,0.00,VWS V14.01,2013-07-17 21:21:00,
2013-07-17 14:26:00,94.4,56.3,29.82,NNW,348,1.0,5.0,28,0.00,,,0.00,VWS V14.01,2013-07-17 21:26:00,
2013-07-17 14:31:00,95.7,56.4,29.82,NNW,345,3.0,6.0,27,0.00,,,0.00,VWS V14.01,2013-07-17 21:31:00,
2013-07-17 14:36:00,96.0,56.7,29.81,NNW,348,4.0,8.0,27,0.00,,,0.00,VWS V14.01,2013-07-17 21:36:00,
2013-07-17 14:41:00,96.3,56.9,29.81,North,350,3.0,7.0,27,0.00,,,0.00,VWS V14.01,2013-07-17 21:41:00,
2013-07-17 14:46:00,96.0,56.7,29.81,NNW,335,6.0,10.0,27,0.00,,,0.00,VWS V14.01,2013-07-17 21:46:00,
2013-07-17 14:51:00,95.5,56.2,29.81,NW,304,2.0,9.0,27,0.00,,,0.00,VWS V14.01,2013-07-17 21:51:00,
2013-07-17 14:56:00,95.3,56.1,29.81,NNE,17,0.0,8.0,27,0.00,,,0.00,VWS V14.01,2013-07-17 21:56:00,
2013-07-17 15:01:00,95.7,57.4,29.80,SSW,206,1.0,8.0,28,0.00,,,0.00,VWS V14.01,2013-07-17 22:01:00,
2013-07-17 15:06:00,97.2,57.7,29.80,WNW,287,0.0,5.0,27,0.00,,,0.00,VWS V14.01,2013-07-17 22:06:00,
2013-07-17 15:11:00,96.4,57.0,29.80,WNW,294,2.0,3.0,27,0.00,,,0.00,VWS V14.01,2013-07-17 22:11:00,
2013-07-17 15:16:00,97.1,57.6,29.80,North,10,2.0,8.0,27,0.00,,,0.00,VWS V14.01,2013-07-17 22:16:00,
2013-07-17 15:21:00,96.3,56.9,29.79,North,360,4.0,9.0,27,0.00,,,0.00,VWS V14.01,2013-07-17 22:21:00,
2013-07-17 15:26:00,96.5,57.1,29.79,WNW,303,4.0,8.0,27,0.00,,,0.00,VWS V14.01,2013-07-17 22:26:00,
2013-07-17 15:31:00,96.7,56.2,29.79,NNW,333,3.0,5.0,26,0.00,,,0.00,VWS V14.01,2013-07-17 22:31:00,
2013-07-17 15:36:00,96.4,58.0,29.79,North,5,4.0,7.0,28,0.00,,,0.00,VWS V14.01,2013-07-17 22:36:00,
2013-07-17 15:41:00,96.6,56.1,29.78,NNW,342,2.0,8.0,26,0.00,,,0.00,VWS V14.01,2013-07-17 22:41:00,
2013-07-17 15:46:00,95.3,56.1,29.78,NW,318,4.0,6.0,27,0.00,,,0.00,VWS V14.01,2013-07-17 22:46:00,
2013-07-17 15:51:00,94.3,56.2,29.78,NW,323,4.0,6.0,28,0.00,,,0.00,VWS V14.01,2013-07-17 22:51:00,
2013-07-17 15:56:00,94.2,57.1,29.78,West,266,2.0,8.0,29,0.00,,,0.00,VWS V14.01,2013-07-17 22:56:00,
2013-07-17 16:01:00,94.9,57.7,29.78,West,278,4.0,9.0,29,0.00,,,0.00,VWS V14.01,2013-07-17 23:01:00,
2013-07-17 16:06:00,96.0,58.7,29.77,West,268,2.0,8.0,29,0.00,,,0.00,VWS V14.01,2013-07-17 23:06:00,
2013-07-17 16:11:00,96.2,57.8,29.77,NW,315,1.0,5.0,28,0.00,,,0.00,VWS V14.01,2013-07-17 23:11:00,
2013-07-17 16:16:00,96.4,58.0,29.77,WSW,237,0.0,8.0,28,0.00,,,0.00,VWS V14.01,2013-07-17 23:16:00,
2013-07-17 16:21:00,96.8,58.3,29.77,SW,215,3.0,5.0,28,0.00,,,0.00,VWS V14.01,2013-07-17 23:21:00,
2013-07-17 16:26:00,95.5,57.2,29.76,West,275,3.0,4.0,28,0.00,,,0.00,VWS V14.01,2013-07-17 23:26:00,
2013-07-17 16:31:00,94.2,57.1,29.76,NNW,340,2.0,7.0,29,0.00,,,0.00,VWS V14.01,2013-07-17 23:31:00,
2013-07-17 16:36:00,94.4,56.3,29.76,WNW,301,2.0,5.0,28,0.00,,,0.00,VWS V14.01,2013-07-17 23:36:00,
2013-07-17 16:41:00,94.1,56.0,29.76,WNW,294,0.0,3.0,28,0.00,,,0.00,VWS V14.01,2013-07-17 23:41:00,
2013-07-17 16:46:00,94.2,57.1,29.76,WNW,302,6.0,6.0,29,0.00,,,0.00,VWS V14.01,2013-07-17 23:46:00,
2013-07-17 16:51:00,93.8,55.8,29.76,NW,312,3.0,6.0,28,0.00,,,0.00,VWS V14.01,2013-07-17 23:51:00,
2013-07-17 16:56:00,93.7,56.7,29.76,NW,314,0.0,3.0,29,0.00,,,0.00,VWS V14.01,2013-07-17 23:56:00,
2013-07-17 17:01:00,93.5,56.5,29.76,NNW,327,3.0,5.0,29,0.00,,,0.00,VWS V14.01,2013-07-18 00:01:00,
2013-07-17 17:06:00,94.0,56.0,29.75,WSW,249,0.0,4.0,28,0.00,,,0.00,VWS V14.01,2013-07-18 00:06:00,
2013-07-17 17:11:00,93.4,57.4,29.75,WNW,295,0.0,3.0,30,0.00,,,0.00,VWS V14.01,2013-07-18 00:11:00,
2013-07-17 17:16:00,92.7,55.8,29.75,WNW,284,0.0,3.0,29,0.00,,,0.00,VWS V14.01,2013-07-18 00:16:00,
2013-07-17 17:21:00,92.8,56.8,29.76,NW,307,1.0,3.0,30,0.00,,,0.00,VWS V14.01,2013-07-18 00:21:00,
2013-07-17 17:26:00,92.7,55.8,29.76,NW,311,3.0,6.0,29,0.00,,,0.00,VWS V14.01,2013-07-18 00:26:00,
2013-07-17 17:31:00,93.0,56.1,29.76,NW,319,1.0,6.0,29,0.00,,,0.00,VWS V14.01,2013-07-18 00:31:00,
2013-07-17 17:36:00,93.2,55.3,29.76,NW,324,0.0,3.0,28,0.00,,,0.00,VWS V14.01,2013-07-18 00:36:00,
2013-07-17 17:41:00,93.0,55.1,29.76,North,355,3.0,7.0,28,0.00,,,0.00,VWS V14.01,2013-07-18 00:41:00,
2013-07-17 17:46:00,92.8,54.9,29.76,NNW,336,1.0,7.0,28,0.00,,,0.00,VWS V14.01,2013-07-18 00:46:00,
2013-07-17 17:51:00,93.9,54.9,29.76,NNE,25,4.0,9.0,27,0.00,,,0.00,VWS V14.01,2013-07-18 00:51:00,
2013-07-17 17:56:00,94.3,54.2,29.76,North,9,2.0,10.0,26,0.00,,,0.00,VWS V14.01,2013-07-18 00:56:00,
2013-07-17 18:01:00,94.0,53.9,29.76,NNW,343,4.0,6.0,26,0.00,,,0.00,VWS V14.01,2013-07-18 01:01:00,
2013-07-17 18:06:00,93.8,54.8,29.76,North,5,0.0,6.0,27,0.00,,,0.00,VWS V14.01,2013-07-18 01:06:00,
2013-07-17 18:11:00,93.5,54.5,29.77,NNE,13,4.0,7.0,27,0.00,,,0.00,VWS V14.01,2013-07-18 01:11:00,
2013-07-17 18:16:00,93.0,54.1,29.76,North,355,3.0,8.0,27,0.00,,,0.00,VWS V14.01,2013-07-18 01:16:00,
2013-07-17 18:21:00,92.6,54.8,29.76,NNE,26,3.0,6.0,28,0.00,,,0.00,VWS V14.01,2013-07-18 01:21:00,
2013-07-17 18:26:00,92.3,53.5,29.77,North,360,2.0,6.0,27,0.00,,,0.00,VWS V14.01,2013-07-18 01:26:00,
2013-07-17 18:31:00,92.0,54.3,29.77,NE,44,1.0,4.0,28,0.00,,,0.00,VWS V14.01,2013-07-18 01:31:00,
2013-07-17 18:36:00,91.8,54.1,29.77,North,360,4.0,6.0,28,0.00,,,0.00,VWS V14.01,2013-07-18 01:36:00,
2013-07-17 18:41:00,91.5,53.8,29.77,NNE,23,2.0,5.0,28,0.00,,,0.00,VWS V14.01,2013-07-18 01:41:00,
2013-07-17 18:46:00,91.3,54.6,29.77,North,355,0.0,3.0,29,0.00,,,0.00,VWS V14.01,2013-07-18 01:46:00,
2013-07-17 18:51:00,91.0,54.4,29.77,North,355,2.0,4.0,29,0.00,,,0.00,VWS V14.01,2013-07-18 01:51:00,
2013-07-17 18:56:00,90.8,55.1,29.77,NNE,13,1.0,4.0,30,0.00,,,0.00,VWS V14.01,2013-07-18 01:56:00,
2013-07-17 19:01:00,90.6,55.0,29.77,NNE,13,0.0,2.0,30,0.00,,,0.00,VWS V14.01,2013-07-18 02:01:00,
2013-07-17 19:06:00,90.3,55.6,29.77,NNE,13,2.0,2.0,31,0.00,,,0.00,VWS V14.01,2013-07-18 02:06:00,
2013-07-17 19:11:00,90.1,55.4,29.77,NNE,13,0.0,2.0,31,0.00,,,0.00,VWS V14.01,2013-07-18 02:11:00,
2013-07-17 19:16:00,89.9,56.1,29.77,NNE,13,0.0,2.0,32,0.00,,,0.00,VWS V14.01,2013-07-18 02:16:00,
2013-07-17 19:21:00,89.6,56.7,29.77,NE,38,5.0,11.0,33,0.00,,,0.00,VWS V14.01,2013-07-18 02:21:00,
2013-07-17 19:26:00,89.0,57.0,29.77,ENE,59,1.0,7.0,34,0.00,,,0.00,VWS V14.01,2013-07-18 02:26:00,
2013-07-17 19:31:00,88.7,57.6,29.77,ENE,65,4.0,5.0,35,0.00,,,0.00,VWS V14.01,2013-07-18 02:31:00,
2013-07-17 19:36:00,88.2,57.9,29.77,NNE,24,4.0,7.0,36,0.00,,,0.00,VWS V14.01,2013-07-18 02:36:00,
2013-07-17 19:41:00,87.8,58.3,29.77,NE,54,0.0,5.0,37,0.00,,,0.00,VWS V14.01,2013-07-18 02:41:00,
2013-07-17 19:46:00,87.5,57.3,29.77,NE,52,2.0,6.0,36,0.00,,,0.00,VWS V14.01,2013-07-18 02:46:00,
2013-07-17 19:51:00,87.4,58.0,29.77,NNE,18,4.0,6.0,37,0.00,,,0.00,VWS V14.01,2013-07-18 02:51:00,
2013-07-17 19:56:00,87.1,57.7,29.77,NNW,329,6.0,6.0,37,0.00,,,0.00,VWS V14.01,2013-07-18 02:56:00,
2013-07-17 20:01:00,87.1,57.7,29.78,NE,50,4.0,6.0,37,0.00,,,0.00,VWS V14.01,2013-07-18 03:01:00,
2013-07-17 20:06:00,87.1,57.7,29.78,ENE,71,1.0,5.0,37,0.00,,,0.00,VWS V14.01,2013-07-18 03:06:00,
2013-07-17 20:11:00,87.2,57.0,29.78,ENE,57,2.0,5.0,36,0.00,,,0.00,VWS V14.01,2013-07-18 03:11:00,
2013-07-17 20:16:00,87.2,57.0,29.78,NNE,33,0.0,3.0,36,0.00,,,0.00,VWS V14.01,2013-07-18 03:16:00,
2013-07-17 20:21:00,87.1,57.7,29.78,NNE,33,0.0,3.0,37,0.00,,,0.00,VWS V14.01,2013-07-18 03:21:00,
2013-07-17 20:26:00,86.6,57.2,29.78,North,360,2.0,4.0,37,0.00,,,0.00,VWS V14.01,2013-07-18 03:26:00,
2013-07-17 20:31:00,86.4,57.1,29.78,North,360,0.0,3.0,37,0.00,,,0.00,VWS V14.01,2013-07-18 03:31:00,
2013-07-17 20:36:00,86.4,57.1,29.79,North,360,0.0,1.0,37,0.00,,,0.00,VWS V14.01,2013-07-18 03:36:00,
2013-07-17 20:41:00,85.7,57.2,29.79,WNW,284,0.0,2.0,38,0.00,,,0.00,VWS V14.01,2013-07-18 03:41:00,
2013-07-17 20:46:00,86.0,57.5,29.79,West,280,0.0,2.0,38,0.00,,,0.00,VWS V14.01,2013-07-18 03:46:00,
2013-07-17 20:51:00,85.9,57.4,29.79,WSW,248,0.0,4.0,38,0.00,,,0.00,VWS V14.01,2013-07-18 03:51:00,
2013-07-17 20:56:00,85.9,57.4,29.79,WSW,249,0.0,1.0,38,0.00,,,0.00,VWS V14.01,2013-07-18 03:56:00,
2013-07-17 21:01:00,85.7,59.3,29.80,WSW,249,0.0,0.0,41,0.00,,,0.00,VWS V14.01,2013-07-18 04:01:00,
2013-07-17 21:02:00,85.6,59.2,29.80,WSW,249,0.0,0.0,41,0.00,,,0.00,VWS V14.01,2013-07-18 04:02:00,
2013-07-17 21:07:00,85.7,57.9,29.80,WSW,253,0.0,0.0,39,0.00,,,0.00,VWS V14.01,2013-07-18 04:07:00,
2013-07-17 21:12:00,85.7,57.9,29.80,WSW,253,0.0,0.0,39,0.00,,,0.00,VWS V14.01,2013-07-18 04:12:00,
2013-07-17 21:16:00,85.3,58.3,29.80,WSW,253,0.0,0.0,40,0.00,,,0.00,VWS V14.01,2013-07-18 04:16:00,
2013-07-17 21:17:00,85.3,59.0,29.80,WSW,253,0.0,0.0,41,0.00,,,0.00,VWS V14.01,2013-07-18 04:17:00,
2013-07-17 21:22:00,85.0,58.7,29.80,WSW,253,0.0,0.0,41,0.00,,,0.00,VWS V14.01,2013-07-18 04:22:00,
2013-07-17 21:27:00,84.8,58.5,29.81,SSW,203,1.0,7.0,41,0.00,,,0.00,VWS V14.01,2013-07-18 04:27:00,
2013-07-17 21:32:00,84.6,58.3,29.81,SW,215,2.0,5.0,41,0.00,,,0.00,VWS V14.01,2013-07-18 04:32:00,
2013-07-17 21:37:00,84.4,58.2,29.81,WSW,246,1.0,5.0,41,0.00,,,0.00,VWS V14.01,2013-07-18 04:37:00,
2013-07-17 21:42:00,84.1,58.5,29.81,West,280,3.0,3.0,42,0.00,,,0.00,VWS V14.01,2013-07-18 04:42:00,
2013-07-17 21:47:00,84.0,58.5,29.81,West,261,0.0,3.0,42,0.00,,,0.00,VWS V14.01,2013-07-18 04:47:00,
2013-07-17 21:52:00,83.9,58.4,29.81,WSW,256,0.0,2.0,42,0.00,,,0.00,VWS V14.01,2013-07-18 04:52:00,
2013-07-17 21:57:00,83.9,58.4,29.81,West,264,2.0,2.0,42,0.00,,,0.00,VWS V14.01,2013-07-18 04:57:00,
2013-07-17 22:02:00,83.9,58.4,29.81,West,273,0.0,2.0,42,0.00,,,0.00,VWS V14.01,2013-07-18 05:02:00,
2013-07-17 22:07:00,83.8,58.3,29.81,West,281,6.0,6.0,42,0.00,,,0.00,VWS V14.01,2013-07-18 05:07:00,
2013-07-17 22:12:00,83.9,57.7,29.81,West,277,1.0,2.0,41,0.00,,,0.00,VWS V14.01,2013-07-18 05:12:00,
2013-07-17 22:17:00,84.0,57.8,29.81,WNW,292,3.0,3.0,41,0.00,,,0.00,VWS V14.01,2013-07-18 05:17:00,
2013-07-17 22:22:00,84.0,57.8,29.81,NNW,346,1.0,3.0,41,0.00,,,0.00,VWS V14.01,2013-07-18 05:22:00,
2013-07-17 22:27:00,83.8,58.3,29.81,NNW,346,0.0,0.0,42,0.00,,,0.00,VWS V14.01,2013-07-18 05:27:00,
2013-07-17 22:32:00,83.6,58.1,29.82,NNW,346,0.0,1.0,42,0.00,,,0.00,VWS V14.01,2013-07-18 05:32:00,
2013-07-17 22:37:00,83.3,58.5,29.81,NW,322,0.0,1.0,43,0.00,,,0.00,VWS V14.01,2013-07-18 05:37:00,
2013-07-17 22:42:00,83.4,58.6,29.82,NW,320,0.0,0.0,43,0.00,,,0.00,VWS V14.01,2013-07-18 05:42:00,
2013-07-17 22:47:00,83.7,56.8,29.82,NW,311,3.0,3.0,40,0.00,,,0.00,VWS V14.01,2013-07-18 05:47:00,
2013-07-17 22:52:00,83.9,57.0,29.82,NNW,339,2.0,2.0,40,0.00,,,0.00,VWS V14.01,2013-07-18 05:52:00,
2013-07-17 22:57:00,84.0,56.4,29.82,North,9,0.0,2.0,39,0.00,,,0.00,VWS V14.01,2013-07-18 05:57:00,
2013-07-17 23:02:00,84.1,55.8,29.82,North,9,0.0,0.0,38,0.00,,,0.00,VWS V14.01,2013-07-18 06:02:00,
2013-07-17 23:07:00,83.9,56.3,29.82,WNW,301,0.0,1.0,39,0.00,,,0.00,VWS V14.01,2013-07-18 06:07:00,
2013-07-17 23:12:00,83.9,56.3,29.82,WNW,284,1.0,5.0,39,0.00,,,0.00,VWS V14.01,2013-07-18 06:12:00,
2013-07-17 23:17:00,83.8,55.5,29.81,WNW,290,0.0,1.0,38,0.00,,,0.00,VWS V14.01,2013-07-18 06:17:00,
2013-07-17 23:22:00,83.7,56.1,29.82,WNW,290,0.0,0.0,39,0.00,,,0.00,VWS V14.01,2013-07-18 06:22:00,
2013-07-17 23:27:00,83.0,56.2,29.82,WNW,288,0.0,1.0,40,0.00,,,0.00,VWS V14.01,2013-07-18 06:27:00,
2013-07-17 23:32:00,83.1,54.9,29.82,WNW,288,0.0,0.0,38,0.00,,,0.00,VWS V14.01,2013-07-18 06:32:00,
2013-07-17 23:37:00,83.2,55.0,29.82,West,275,0.0,1.0,38,0.00,,,0.00,VWS V14.01,2013-07-18 06:37:00,
2013-07-17 23:42:00,83.2,55.7,29.82,West,281,0.0,3.0,39,0.00,,,0.00,VWS V14.01,2013-07-18 06:42:00,
2013-07-17 23:47:00,83.0,55.5,29.82,West,281,0.0,2.0,39,0.00,,,0.00,VWS V14.01,2013-07-18 06:47:00,
2013-07-17 23:52:00,82.9,55.4,29.82,West,280,0.0,3.0,39,0.00,,,0.00,VWS V14.01,2013-07-18 06:52:00,
2013-07-17 23:57:00,82.8,56.0,29.82,West,280,0.0,1.0,40,0.00,,,0.00,VWS V14.01,2013-07-18 06:57:00,